TimeEDT,TemperatureF,Dew PointF,Humidity,Sea Level PressureIn,VisibilityMPH,Wind Direction,Wind SpeedMPH,Gust SpeedMPH,PrecipitationIn,Events,Conditions,WindDirDegrees,DateUTC
12:53 AM,46.9,42.1,83,30.06,10.0,North,8.1,-,N/A,,Overcast,360,2012-10-28 04:53:00
1:53 AM,46.9,41.0,80,30.06,10.0,North,10.4,17.3,N/A,,Overcast,360,2012-10-28 05:53:00
2:53 AM,46.0,41.0,83,30.06,10.0,North,8.1,-,N/A,,Overcast,360,2012-10-28 06:53:00
3:25 AM,46.4,41.0,81,30.03,10.0,North,10.4,-,N/A,,Overcast,350,2012-10-28 07:25:00
3:53 AM,46.0,39.9,79,30.04,10.0,North,9.2,17.3,0.00,Rain,Light Rain,350,2012-10-28 07:53:00
4:53 AM,46.0,39.9,79,30.01,10.0,North,11.5,18.4,0.00,,Overcast,10,2012-10-28 08:53:00
5:43 AM,44.6,41.0,87,30.01,7.0,North,9.2,-,0.01,Rain,Light Rain,360,2012-10-28 09:43:00
5:53 AM,45.0,41.0,86,30.03,6.0,North,9.2,-,0.01,Rain,Light Rain,360,2012-10-28 09:53:00
6:44 AM,44.6,41.0,87,29.99,7.0,North,6.9,16.1,0.09,Rain,Light Rain,10,2012-10-28 10:44:00
6:53 AM,44.1,41.0,89,30.01,7.0,North,5.8,-,0.10,Rain,Rain,360,2012-10-28 10:53:00
7:10 AM,44.6,41.0,87,30.00,10.0,North,9.2,18.4,0.02,Rain,Light Rain,350,2012-10-28 11:10:00
7:53 AM,44.1,41.0,89,30.02,6.0,NNW,5.8,-,0.05,Rain,Light Rain,340,2012-10-28 11:53:00
8:53 AM,44.1,41.0,89,30.02,5.0,North,6.9,-,0.04,Rain,Light Rain,350,2012-10-28 12:53:00
9:53 AM,43.0,39.9,89,30.01,5.0,North,10.4,-,0.06,Rain,Light Rain,360,2012-10-28 13:53:00
10:53 AM,43.0,39.9,89,30.01,5.0,North,8.1,-,0.08,Rain,Rain,360,2012-10-28 14:53:00
11:53 AM,44.1,39.9,85,30.01,10.0,North,12.7,17.3,0.05,Rain,Light Rain,350,2012-10-28 15:53:00
12:53 PM,43.0,39.9,89,29.99,6.0,North,10.4,-,0.06,Rain,Light Rain,350,2012-10-28 16:53:00
1:53 PM,44.1,39.9,85,29.96,9.0,North,10.4,18.4,0.05,Rain,Light Rain,350,2012-10-28 17:53:00
2:53 PM,43.0,39.9,89,29.94,7.0,NNW,9.2,-,0.03,Rain,Light Rain,340,2012-10-28 18:53:00
3:53 PM,42.1,39.0,89,29.94,10.0,North,11.5,-,0.01,,Overcast,350,2012-10-28 19:53:00
4:53 PM,43.0,39.0,86,29.94,10.0,North,9.2,19.6,N/A,,Overcast,350,2012-10-28 20:53:00
5:53 PM,42.1,39.0,89,29.95,5.0,North,8.1,18.4,0.02,Rain,Light Rain,350,2012-10-28 21:53:00
6:53 PM,42.1,39.0,89,29.95,10.0,NNW,8.1,-,0.03,Rain,Light Rain,340,2012-10-28 22:53:00
7:22 PM,42.8,37.4,81,29.93,10.0,North,10.4,17.3,0.01,Rain,Light Rain,350,2012-10-28 23:22:00
7:53 PM,42.1,37.9,85,29.96,10.0,NNW,9.2,-,0.03,Rain,Light Rain,330,2012-10-28 23:53:00
8:17 PM,42.8,37.4,81,29.94,10.0,North,9.2,-,0.02,Rain,Light Rain,350,2012-10-29 00:17:00
8:24 PM,42.8,37.4,81,29.94,9.0,NNW,9.2,-,0.02,Rain,Light Rain,340,2012-10-29 00:24:00
8:50 PM,41.0,37.4,87,29.94,9.0,NNW,11.5,-,0.04,Rain,Light Rain,340,2012-10-29 00:50:00
8:53 PM,41.0,37.9,89,29.96,9.0,North,9.2,-,0.04,Rain,Light Rain,350,2012-10-29 00:53:00
9:21 PM,41.0,37.4,87,29.94,10.0,North,10.4,-,0.02,Rain,Light Rain,350,2012-10-29 01:21:00
9:53 PM,41.0,37.9,89,29.95,10.0,North,10.4,-,0.03,Rain,Light Rain,350,2012-10-29 01:53:00
10:07 PM,41.0,37.4,87,29.93,10.0,NNW,8.1,-,0.01,Rain,Light Rain,340,2012-10-29 02:07:00
10:27 PM,39.2,37.4,93,29.93,10.0,NW,13.8,21.9,0.02,Rain,Light Rain,320,2012-10-29 02:27:00
10:53 PM,39.9,37.0,89,29.94,8.0,North,10.4,-,0.02,Rain,Light Rain,350,2012-10-29 02:53:00
11:27 PM,39.2,37.4,93,29.92,10.0,NNW,12.7,18.4,0.02,Rain,Light Rain,340,2012-10-29 03:27:00
11:39 PM,39.2,37.4,93,29.91,9.0,NNW,10.4,19.6,0.03,Rain,Light Rain,340,2012-10-29 03:39:00
11:46 PM,41.0,37.4,87,29.91,9.0,NNW,11.5,17.3,0.04,Rain,Light Rain,330,2012-10-29 03:46:00
11:53 PM,41.0,37.0,86,29.93,10.0,NNW,10.4,-,0.04,Rain,Light Rain,340,2012-10-29 03:53:00